sat.trackr.live / text

‹ back to catalog

MUOS-3

NORAD 40374 · 2015-002A

PAYLOAD ACTIVE UNKNOWN

§ Identity

Operator
Country
US
Launch date
2015-01-21
Launch site
AFETR
Launch vehicle
Mass (kg)
RCS (m²)
20.86

Purposes: comms

External: N2YO · Heavens-Above · Gunter

§ Orbital elements

Epoch: 2026-05-25T01:57:40.246848Z

Period
1,436.08 min
Inclination
4.4771°
Eccentricity
0.0051197
Mean motion
1.00272907 rev/d
Perigee alt
35,570.4 km
Apogee alt
36,002.1 km
Semi-major
42,164.4 km
B*
0.0000e+0
RAAN
43.4174°
Arg perigee
179.2348°
Mean anomaly
33.9795°
Rev number
4,135

§ Raw data

MUOS-31 40374U 15002A   26145.08171582 -.00000131  00000+0  00000+0 0  99902 40374   4.4771  43.4174 0051197 179.2348  33.9795  1.00272907 41350

JSON: /api/v1/satellites/40374 · /tle

For live sub-satellite position, see the globe view (requires WebGL).

§ Visibility from observer

Set your observer location to see the next 7 days of passes ≥ 10°. The values pass through the URL so the page stays shareable.

No JS? Fill the form by hand. The geolocation button needs JavaScript.